| time (UTC) | temp F | wind direction | speed knots | gust knots | rain 1hr in | rain 24hr in | rain mn in | humidity % | barometer mb |
| 20260505200037 | 66 | 292 | 12.2 | 21.7 | 0.00 | 2.56 | 0.00 | 59 | 1015.2 |
| 20260505194531 | 66 | 291 | 11.3 | 21.7 | 0.00 | 2.56 | 0.00 | 59 | 1015.3 |
| 20260505193143 | 66 | 285 | 9.6 | 19.1 | 0.00 | 2.56 | 0.00 | 59 | 1015.4 |
| 20260505191534 | 65 | 288 | 11.3 | 23.5 | 0.00 | 2.56 | 0.00 | 60 | 1015.4 |
| 20260505184534 | 64 | 289 | 10.4 | 19.1 | 0.00 | 2.56 | 0.00 | 62 | 1015.6 |
| 20260505183035 | 64 | 290 | 10.4 | 20.9 | 0.00 | 2.56 | 0.00 | 63 | 1015.7 |
| 20260505181611 | 63 | 290 | 12.2 | 20.9 | 0.00 | 2.56 | 0.00 | 64 | 1015.8 |
| 20260505180149 | 63 | 289 | 10.4 | 20.9 | 0.00 | 2.56 | 0.00 | 65 | 1015.7 |
| 20260505173035 | 62 | 287 | 10.4 | 25.2 | 0.00 | 2.56 | 0.00 | 67 | 1015.7 |
| 20260505171649 | 62 | 287 | 9.6 | 20.9 | 0.00 | 2.56 | 0.00 | 67 | 1015.8 |
| 20260505170035 | 61 | 291 | 9.6 | 19.1 | 0.00 | 2.56 | 0.00 | 68 | 1015.8 |
| 20260505164531 | 61 | 279 | 8.7 | 19.1 | 0.00 | 2.56 | 0.00 | 69 | 1015.7 |
| 20260505163032 | 60 | 284 | 8.7 | 17.4 | 0.00 | 2.56 | 0.00 | 70 | 1015.6 |
| 20260505161543 | 60 | 288 | 8.7 | 19.1 | 0.00 | 2.56 | 0.00 | 71 | 1015.7 |
| 20260505153034 | 59 | 279 | 6.1 | 13.0 | 0.00 | 2.56 | 0.00 | 74 | 1015.8 |
| 20260505151536 | 58 | 264 | 7.0 | 14.8 | 0.00 | 2.56 | 0.00 | 76 | 1015.6 |
| 20260505150108 | 58 | 276 | 7.0 | 14.8 | 0.00 | 2.56 | 0.00 | 76 | 1015.6 |
| 20260505140109 | 56 | 281 | 6.1 | 12.2 | 0.00 | 2.56 | 0.00 | 80 | 1015.2 |
| 20260505130111 | 56 | 281 | 7.0 | 13.9 | 0.00 | 2.56 | 0.00 | 80 | 1014.7 |
| 20260505124535 | 56 | 281 | 7.0 | 14.8 | 0.00 | 2.56 | 0.00 | 80 | 1014.6 |
| 20260505123031 | 57 | 282 | 7.8 | 15.6 | 0.00 | 2.56 | 0.00 | 78 | 1014.5 |
| 20260505121532 | 57 | 284 | 7.0 | 15.6 | 0.00 | 2.56 | 0.00 | 78 | 1014.4 |
| 20260505120035 | 57 | 287 | 7.0 | 15.6 | 0.00 | 2.56 | 0.00 | 78 | 1014.3 |
| 20260505114534 | 57 | 285 | 6.1 | 13.0 | 0.00 | 2.56 | 0.00 | 78 | 1014.2 |
| 20260505113033 | 57 | 289 | 7.0 | 15.6 | 0.00 | 2.56 | 0.00 | 77 | 1014.2 |
| 20260505111536 | 58 | 286 | 7.8 | 20.0 | 0.00 | 2.56 | 0.00 | 77 | 1014.1 |
| 20260505101608 | 58 | 284 | 7.8 | 16.5 | 0.00 | 2.56 | 0.00 | 76 | 1013.7 |
| 20260505094642 | 60 | 280 | 7.8 | 16.5 | 0.00 | 2.56 | 0.00 | 74 | 1013.5 |
| 20260505093034 | 60 | 282 | 10.4 | 21.7 | 0.00 | 2.56 | 0.00 | 74 | 1013.3 |
| 20260505091535 | 61 | 279 | 7.8 | 20.9 | 0.00 | 2.56 | 0.00 | 73 | 1013.3 |
| 20260505090035 | 61 | 273 | 7.0 | 14.8 | 0.00 | 2.56 | 0.00 | 72 | 1013.1 |
| 20260505084532 | 62 | 279 | 7.0 | 14.8 | 0.00 | 2.56 | 0.00 | 71 | 1013.0 |
| 20260505083033 | 62 | 273 | 7.8 | 14.8 | 0.00 | 2.56 | 0.00 | 71 | 1012.9 |
| 20260505081535 | 63 | 276 | 7.0 | 16.5 | 0.00 | 2.56 | 0.00 | 71 | 1012.8 |
| 20260505080035 | 63 | 282 | 7.8 | 14.8 | 0.00 | 2.56 | 0.00 | 71 | 1012.8 |
| 20260505074535 | 64 | 275 | 8.7 | 16.5 | 0.00 | 2.56 | 0.00 | 71 | 1012.6 |
| 20260505073109 | 64 | 276 | 6.1 | 15.6 | 0.00 | 2.56 | 0.00 | 70 | 1012.6 |
| 20260505071537 | 65 | 279 | 7.8 | 18.2 | 0.00 | 2.56 | 0.00 | 69 | 1012.4 |
| 20260505070111 | 66 | 284 | 8.7 | 15.6 | 0.00 | 2.56 | 0.00 | 68 | 1012.2 |
| 20260505064533 | 66 | 284 | 7.0 | 13.0 | 0.00 | 2.56 | 2.56 | 65 | 1012.1 |
| 20260505063034 | 66 | 285 | 7.0 | 15.6 | 0.00 | 2.56 | 2.56 | 65 | 1012.0 |
| 20260505061535 | 67 | 282 | 5.2 | 10.4 | 0.00 | 2.56 | 2.56 | 65 | 1012.0 |
| 20260505054536 | 67 | 266 | 4.3 | 10.4 | 0.00 | 2.56 | 2.56 | 62 | 1011.9 |
| 20260505053037 | 68 | 274 | 4.3 | 13.0 | 0.00 | 2.56 | 2.56 | 61 | 1011.8 |
| 20260505051536 | 68 | 276 | 5.2 | 12.2 | 0.00 | 2.56 | 2.56 | 59 | 1011.7 |
| 20260505041610 | 69 | 277 | 4.3 | 9.6 | 0.00 | 2.56 | 2.56 | 55 | 1011.0 |
| 20260505040050 | 70 | 280 | 4.3 | 12.2 | 0.00 | 2.56 | 2.56 | 55 | 1010.8 |
| 20260505034534 | 70 | 280 | 4.3 | 9.6 | 2.56 | 2.56 | 2.56 | 54 | 1010.6 |
| 20260505033032 | 70 | 282 | 4.3 | 13.9 | 2.56 | 2.56 | 2.56 | 53 | 1010.4 |
| 20260505030038 | 72 | 273 | 7.0 | 507.5 | 2.56 | 2.56 | 0.00 | 50 | 1007.0 |
| 20260505024535 | 72 | 265 | 5.2 | 12.2 | 0.00 | 0.00 | 0.00 | 52 | 1009.8 |
| 20260505023036 | 73 | 263 | 6.1 | 16.5 | 0.00 | 0.00 | 0.00 | 52 | 1009.8 |
| 20260505021535 | 73 | 238 | 2.6 | 7.8 | 0.00 | 0.00 | 0.00 | 52 | 1009.8 |
| 20260505020036 | 73 | 234 | 4.3 | 12.2 | 0.00 | 0.00 | 0.00 | 51 | 1009.8 |
| 20260505014537 | 74 | 245 | 4.3 | 10.4 | 0.00 | 0.00 | 0.00 | 51 | 1009.8 |
| 20260505013036 | 74 | 238 | 6.1 | 14.8 | 0.00 | 0.00 | 0.00 | 50 | 1009.6 |
| 20260505004653 | 75 | 265 | 7.0 | 18.2 | 0.00 | 0.00 | 0.00 | 48 | 1009.6 |
| 20260505004642 | 75 | 275 | 7.8 | 17.4 | 0.00 | 0.00 | 0.00 | 48 | 1009.4 |
| 20260505000041 | 75 | 278 | 9.6 | 20.0 | 0.00 | 0.00 | 0.00 | 47 | 1009.2 |
| 20260504234533 | 75 | 276 | 8.7 | 20.9 | 0.00 | 0.00 | 0.00 | 47 | 1009.1 |
| 20260504233149 | 76 | 288 | 9.6 | 19.1 | 0.00 | 0.00 | 0.00 | 46 | 1009.1 |
| 20260504231531 | 76 | 286 | 9.6 | 21.7 | 0.00 | 0.00 | 0.00 | 46 | 1009.1 |
| 20260504230037 | 76 | 288 | 9.6 | 18.2 | 0.00 | 0.00 | 0.00 | 46 | 1009.2 |
| 20260504223035 | 76 | 296 | 8.7 | 19.1 | 0.00 | 0.00 | 0.00 | 47 | 1009.6 |
| 20260504220036 | 76 | 292 | 9.6 | 18.2 | 0.00 | 0.00 | 0.00 | 47 | 1009.8 |
| 20260504210037 | 76 | 294 | 5.2 | 15.6 | 0.00 | 0.00 | 0.00 | 46 | 1010.6 |